Location: *
(34.6780°N, 135.8310°E)
Time: 11:47:35
(UTC+00:00)

USA 234 - Pass Details

Date: 18 October 2019
Orbit: 1102 x 1106 km, 123.0° (Epoch: 01 November)

Event Time Altitude Azimuth Distance (km) Brightness Sun altitude
Rises 18:58:49 0° 123° (ESE) 3,909 6.9 -26.6°
Reaches altitude 10° 19:01:19 10° 119° (ESE) 2,953 6.2 -26.1°
Maximum altitude 19:07:42 60° 42° (NE) 1,245 3.7 -24.8°
Enters shadow 19:12:47 17° 327° (NNW) 2,472 4.8 -23.8°
